< Typhoon 202007 2020 Season Typhoon 202009 >
Typhoon 202008 (BAVI)
General InformationTrack Information on Google MapsDetailed Wind InformationForecast History on Google MapsAccess Analytics MapList of All Images || NewsDisaster Info.WeblogTrackbackTyphoon FrontTwiphoonTyphoon Now!Typhoon ImaginationJMA Disaster Info. XMLResourceGoogle EarthGE AnimationAtom FeedGeoJSON
Detalied Best Track (Time Zone = UTC)
Year Month Day Hour Lat. Long. Pressure (hPa) Wind (kt) Class Image Chart
2020 8 21 15 22.0 123.7 1006 30 2 Image Chart
2020 8 21 18 22.3 123.5 1006 30 2 Image Chart
2020 8 21 21 23.2 122.9 1004 30 2 Image Chart
2020 8 22 00 23.6 122.6 1002 35 3 Image Chart
2020 8 22 03 23.9 122.8 1002 35 3 Image Chart
2020 8 22 06 24.3 123.5 994 45 3 Image Chart
2020 8 22 09 24.9 123.8 990 55 4 Image Chart
2020 8 22 12 25.4 123.8 990 55 4 Image Chart
2020 8 22 15 25.6 123.5 990 55 4 Image Chart
2020 8 22 18 25.6 123.6 990 55 4 Image Chart
2020 8 22 21 26.0 123.8 990 55 4 Image Chart
2020 8 23 00 26.3 123.9 990 55 4 Image Chart
2020 8 23 03 26.5 124.0 990 55 4 Image Chart
2020 8 23 06 26.6 124.3 990 55 4 Image Chart
2020 8 23 09 26.7 124.6 990 55 4 Image Chart
2020 8 23 12 27.0 124.9 990 55 4 Image Chart
2020 8 23 15 27.0 125.2 990 55 4 Image Chart
2020 8 23 18 27.1 125.6 985 60 4 Image Chart
2020 8 23 21 27.1 126.1 985 60 4 Image Chart
2020 8 24 00 27.2 126.2 985 60 4 Image Chart
2020 8 24 03 27.4 126.4 975 65 5 Image Chart
2020 8 24 06 27.8 126.5 975 65 5 Image Chart
2020 8 24 09 28.2 126.5 975 65 5 Image Chart
2020 8 24 12 28.4 126.3 970 70 5 Image Chart
2020 8 24 15 28.5 126.2 970 70 5 Image Chart
2020 8 24 18 28.6 126.0 965 75 5 Image Chart
2020 8 24 21 28.8 125.9 965 75 5 Image Chart
2020 8 25 00 29.1 125.8 965 75 5 Image Chart
2020 8 25 03 29.5 125.6 965 75 5 Image Chart
2020 8 25 06 29.8 125.5 955 80 5 Image Chart
2020 8 25 09 30.2 125.4 955 80 5 Image Chart
2020 8 25 12 30.6 125.2 955 80 5 Image Chart
2020 8 25 15 30.9 124.9 955 80 5 Image Chart
2020 8 25 18 31.4 124.8 955 80 5 Image Chart
2020 8 25 21 31.7 124.7 955 80 5 Image Chart
2020 8 26 00 32.3 124.5 950 85 5 Image Chart
2020 8 26 03 32.8 124.4 950 85 5 Image Chart
2020 8 26 06 33.5 124.3 950 85 5 Image Chart
2020 8 26 09 34.3 124.3 950 85 5 Image Chart
2020 8 26 12 35.0 124.6 950 85 5 Image Chart
2020 8 26 15 36.0 124.8 955 80 5 Image Chart
2020 8 26 18 36.9 125.3 965 70 5 Image Chart
2020 8 26 21 37.6 125.1 965 65 5 Image Chart
2020 8 27 00 39.0 125.4 975 60 4 Image Chart
2020 8 27 03 40.1 125.1 985 50 4 Image Chart
2020 8 27 06 42.0 125.0 992 0 6 Image Chart
Japan Meteorological Agency Best Track Data | Correction Date : 2020-08-27
< Typhoon 202007 2020 Season Typhoon 202009 >

Help